Weather History for Dickinson, ND

Change the Weather History Date:

Saturday, May 4, 2013

  Actual Average Record
Temperature  
Mean Temperature 43 °F 49 °F  
Max Temperature 59 °F 63 °F 92 °F (1926)
Min Temperature 26 °F 36 °F 9 °F (1967)
Degree Days  
Heating Degree Days 22 16  
Month to date heating degree days 98 66  
Since 1 July heating degree days 8200 8128  
Cooling Degree Days 0 0  
Month to date cooling degree days 0 0  
Year to date cooling degree days 0 1  
Moisture  
Dew Point 17 °F    
Average Humidity 43    
Maximum Humidity 68    
Minimum Humidity 17    
Precipitation  
Precipitation 0.00 in 0.06 in 0.44 in (1950)
Month to date precipitation 0.00 0.27  
Year to date precipitation 1.06 3.06  
Sea Level Pressure  
Sea Level Pressure 30.30 in    
Wind  
Wind Speed 6 mph (East)    
Max Wind Speed 17 mph    
Max Gust Speed 21 mph    
Visibility 10 miles    
Events      
T = Trace of Precipitation, MM = Missing Value Source: NWS Daily Summary

Daily Weather History Graph

Daily Weather History Graph

Search for Another Location

Airport:

Trip Planner

Search our weather history database for the weather conditions in past years. The results will help you decide how hot, cold, wet, or windy it might be!

Date:

Astronomy

May. 04, 2013 Rise Set
Actual Time 5:31 AM MDT 8:05 PM MDT
Civil Twilight 4:56 AM MDT 8:40 PM MDT
Nautical Twilight 4:13 AM MDT 9:23 PM MDT
Astronomical Twilight 3:24 AM MDT 10:13 PM MDT
Moon 2:50 AM MDT (5/4) 2:47 PM MDT (5/4)
Length of Visible Light 15h 43m
Length of Day
14h 34m
Waning Crescent, 26% of the Moon is Illuminated
May 4
Waning Crescent
May 9
New
May 17
First Quarter
May 24
Full
May 31
Last Quarter

Hourly Weather History & Observations

Time (MDT) Temp. Windchill Dew Point Humidity Pressure Visibility Wind Dir Wind Speed Gust Speed Precip Events Conditions
12:56 AM 34.0 °F 26.6 °F 16.0 °F 48% 30.26 in 10.0 mi ESE 9.2 mph - N/A   Clear
1:56 AM 32.0 °F 24.8 °F 17.1 °F 54% 30.27 in 10.0 mi SE 8.1 mph - N/A   Clear
2:56 AM 30.0 °F 22.4 °F 17.1 °F 59% 30.28 in 10.0 mi SE 8.1 mph - N/A   Clear
3:56 AM 28.0 °F 22.8 °F 17.1 °F 63% 30.28 in 10.0 mi SE 4.6 mph - N/A   Clear
4:56 AM 28.0 °F - 16.0 °F 61% 30.29 in 10.0 mi Calm Calm - N/A   Clear
5:56 AM 27.0 °F 20.5 °F 17.1 °F 66% 30.30 in 10.0 mi ENE 5.8 mph - N/A   Clear
6:56 AM 33.1 °F 30.0 °F 19.9 °F 59% 30.32 in 10.0 mi East 3.5 mph - N/A   Clear
7:56 AM 39.9 °F 35.8 °F 21.9 °F 49% 30.32 in 10.0 mi East 5.8 mph - N/A   Clear
8:56 AM 45.0 °F 41.8 °F 21.0 °F 39% 30.33 in 10.0 mi East 5.8 mph - N/A   Clear
9:56 AM 48.9 °F - 18.0 °F 29% 30.33 in 10.0 mi Variable 4.6 mph - N/A   Clear
10:56 AM 51.1 °F - 14.0 °F 23% 30.33 in 10.0 mi Variable 5.8 mph - N/A   Clear
11:56 AM 54.0 °F - 15.1 °F 22% 30.33 in 10.0 mi ENE 6.9 mph - N/A   Clear
12:56 PM 55.0 °F - 15.1 °F 21% 30.31 in 10.0 mi NE 6.9 mph - N/A   Clear
1:56 PM 57.0 °F - 15.1 °F 19% 30.30 in 10.0 mi ENE 6.9 mph - N/A   Clear
2:56 PM 57.9 °F - 17.1 °F 20% 30.29 in 10.0 mi East 8.1 mph - N/A   Clear
3:56 PM 59.0 °F - 17.1 °F 20% 30.27 in 10.0 mi NE 4.6 mph - N/A   Clear
4:56 PM 57.9 °F - 15.1 °F 19% 30.28 in 10.0 mi NNE 13.8 mph 20.7 mph N/A   Clear
5:56 PM 57.0 °F - 14.0 °F 18% 30.28 in 10.0 mi ENE 12.7 mph - N/A   Clear
6:56 PM 55.9 °F - 17.1 °F 22% 30.28 in 10.0 mi NE 10.4 mph - N/A   Clear
7:56 PM 50.0 °F - 18.0 °F 28% 30.28 in 10.0 mi ENE 8.1 mph - N/A   Clear
8:56 PM 44.1 °F 40.8 °F 18.0 °F 35% 30.30 in 10.0 mi ENE 5.8 mph - N/A   Clear
9:56 PM 43.0 °F 41.3 °F 18.0 °F 37% 30.30 in 10.0 mi East 3.5 mph - N/A   Clear
10:56 PM 42.1 °F 39.2 °F 18.0 °F 38% 30.30 in 10.0 mi ESE 4.6 mph - N/A   Clear
11:56 PM 36.0 °F 33.3 °F 19.0 °F 50% 30.31 in 10.0 mi SSW 3.5 mph - N/A   Clear